This is the latest recevied weather packets stored in our database for station/object EA2AFZ-W. If no packets are shown the sender has not sent any weather packets the latest 10 day(s).
| Time | Temp. | Humidity | Pressure | Rain* | Wind** | Luminosity | Snow |
|---|---|---|---|---|---|---|---|
| 1787813139 | 20.56° C | 61% | 1010 hPa | 0 mm | - | - | - |
| 1787811336 | 20.56° C | 59% | 1010 hPa | 0 mm | - | - | - |
| 1787809533 | 20.56° C | 59% | 1010 hPa | 0 mm | - | - | - |
| 1787807731 | 20.56° C | 63% | 1009 hPa | 0 mm | - | - | - |
| 1787805928 | 20.56° C | 63% | 1009 hPa | 0 mm | - | - | - |
| 1787804126 | 20.56° C | 63% | 1009 hPa | 0 mm | - | - | - |
| 1787802324 | 21.11° C | 64% | 1010 hPa | 0 mm | - | - | - |
| 1787800522 | 21.11° C | 67% | 1010 hPa | 0 mm | - | - | - |
| 1787798720 | 21.67° C | 67% | 1010 hPa | 0 mm | - | - | - |
| 1787796917 | 20.56° C | 68% | 1010 hPa | 0 mm | - | - | - |
| 1787795115 | 20.56° C | 70% | 1010 hPa | 0 mm | - | - | - |
| 1787793313 | 20.56° C | 70% | 1010 hPa | 0 mm | - | - | - |
| 1787791510 | 20.56° C | 70% | 1010 hPa | 0 mm | - | - | - |
| 1787789708 | 20.56° C | 70% | 1010 hPa | 0 mm | - | - | - |
| 1787787965 | 21.11° C | 70% | 1010 hPa | 0 mm | - | - | - |
| 1787786163 | 21.11° C | 71% | 1009 hPa | 0 mm | - | - | - |
| 1787784361 | 21.11° C | 71% | 1009 hPa | 0 mm | - | - | - |
| 1787782558 | 21.67° C | 71% | 1009 hPa | 0 mm | - | - | - |
| 1787780756 | 22.78° C | 71% | 1009 hPa | 0 mm | - | - | - |
| 1787778954 | 22.78° C | 68% | 1009 hPa | 0 mm | - | - | - |
| 1787777152 | 22.78° C | 65% | 1009 hPa | 0 mm | - | - | - |
| 1787775349 | 22.78° C | 64% | 1008 hPa | 0 mm | - | - | - |
| 1787773547 | 23.33° C | 63% | 1008 hPa | 0 mm | - | - | - |
| 1787771746 | 23.89° C | 60% | 1007 hPa | 0 mm | - | - | - |
| 1787769942 | 25° C | 54% | 1007 hPa | 0 mm | - | - | - |
* Rain latest hour (hover to see other rain measurements)
** Current wind speed in m/s (hover to see current wind gust speed)